San Jose, CA

1:29 AM PDT on May 22, 2018 (GMT -0700)
San Jose International

Weather History for KSJC - June, 2013

Change the Weather History Date:

Sunday, June 2, 2013

  Actual Average Record
Temperature  
Mean Temperature 66 °F 66 °F  
Max Temperature 78 °F 77 °F 106 °F (1960)
Min Temperature 53 °F 55 °F 42 °F (1966)
Degree Days  
Heating Degree Days 0 2  
Month to date heating degree days 0 4  
Since 1 June heating degree days 0 4  
Since 1 July heating degree days 2059 2238  
Cooling Degree Days 1 2  
Month to date cooling degree days 8 4  
Year to date cooling degree days 75 67  
Since 1 June cooling degree days 8 4  
Growing Degree Days 15 (Base 50)    
Moisture  
Dew Point 51 °F    
Average Humidity 64    
Maximum Humidity 89    
Minimum Humidity 38    
Precipitation  
Precipitation 0.00 in 0.00 in 0.26 in (1958)
Month to date precipitation 0.00 0.01  
Year to date precipitation 2.20 10.42  
Since 1 July precipitation 9.39  
Sea Level Pressure  
Sea Level Pressure 29.75 in    
Wind  
Wind Speed 9 mph (WNW)    
Max Wind Speed 23 mph    
Max Gust Speed 28 mph    
Visibility 10 miles    
Events      
T = Trace of Precipitation, MM = Missing Value Source: NWS Daily Summary

Daily Weather History Graph

Daily Weather History Graph

Search for Another Location

Airport or City:

Astronomy

Jun. 02, 2013 Rise Set
Actual Time 5:48 AM PDT 8:23 PM PDT
Civil Twilight 5:17 AM PDT 8:54 PM PDT
Nautical Twilight 4:39 AM PDT 9:32 PM PDT
Astronomical Twilight 3:57 AM PDT 10:14 PM PDT
Moon 2:11 AM PDT (6/2) 3:05 PM PDT (6/2)
Length of Visible Light 15h 36m
Length of Day
14h 35m
Waning Crescent, 30% of the Moon is Illuminated
Jun 2
Waning Crescent
Jun 8
New
Jun 16
First Quarter
Jun 23
Full
Jun 29
Last Quarter

Hourly Weather History & Observations

Time (PDT) Temp. Dew Point Humidity Pressure Visibility Wind Dir Wind Speed Gust Speed Precip Events Conditions
12:53 AM 59.0 °F 50.0 °F 72% 29.80 in 10.0 mi WNW 8.1 mph - N/A   Clear
1:53 AM 57.9 °F 48.9 °F 72% 29.79 in 10.0 mi WNW 6.9 mph - N/A   Clear
2:53 AM 57.0 °F 50.0 °F 77% 29.79 in 10.0 mi NW 6.9 mph - N/A   Clear
3:53 AM 55.9 °F 50.0 °F 80% 29.78 in 10.0 mi NW 8.1 mph - N/A   Clear
4:53 AM 55.0 °F 50.0 °F 83% 29.78 in 10.0 mi NW 4.6 mph - N/A   Clear
5:53 AM 53.1 °F 50.0 °F 89% 29.79 in 10.0 mi WNW 4.6 mph - N/A   Clear
6:53 AM 55.0 °F 50.0 °F 83% 29.79 in 10.0 mi NW 3.5 mph - N/A   Clear
7:53 AM 57.0 °F 51.1 °F 81% 29.80 in 10.0 mi WNW 4.6 mph - N/A   Clear
8:53 AM 60.1 °F 51.1 °F 72% 29.79 in 10.0 mi Calm Calm - N/A   Clear
9:53 AM 63.0 °F 51.1 °F 65% 29.78 in 10.0 mi Calm Calm - N/A   Clear
10:53 AM 68.0 °F 52.0 °F 56% 29.77 in 10.0 mi NW 4.6 mph - N/A   Clear
11:53 AM 72.0 °F 51.1 °F 48% 29.76 in 10.0 mi NW 4.6 mph - N/A   Clear
12:53 PM 75.9 °F 48.9 °F 38% 29.73 in 10.0 mi WNW 8.1 mph - N/A   Clear
1:53 PM 75.9 °F 51.1 °F 42% 29.72 in 10.0 mi NW 9.2 mph - N/A   Clear
2:53 PM 77.0 °F 54.0 °F 45% 29.71 in 10.0 mi WNW 12.7 mph - N/A   Clear
3:53 PM 75.0 °F 53.1 °F 46% 29.71 in 10.0 mi WNW 15.0 mph - N/A   Clear
4:53 PM 73.0 °F 53.1 °F 49% 29.70 in 10.0 mi WNW 15.0 mph - N/A   Clear
5:53 PM 71.1 °F 52.0 °F 51% 29.69 in 10.0 mi WNW 13.8 mph - N/A   Clear
6:53 PM 66.9 °F 52.0 °F 59% 29.70 in 10.0 mi WNW 12.7 mph - N/A   Clear
7:53 PM 64.0 °F 52.0 °F 65% 29.71 in 10.0 mi WNW 8.1 mph - N/A   Clear
8:53 PM 61.0 °F 52.0 °F 72% 29.72 in 10.0 mi WNW 3.5 mph - N/A   Clear
9:53 PM 60.1 °F 48.0 °F 64% 29.74 in 10.0 mi SE 10.4 mph - N/A   Clear
10:53 PM 55.9 °F 48.0 °F 75% 29.75 in 10.0 mi SE 18.4 mph - N/A   Clear
11:53 PM 55.0 °F 48.0 °F 77% 29.74 in 10.0 mi ESE 20.7 mph 27.6 mph N/A   Clear